Regional Weather Roundup
Issued by NWS Newport/Morehead, NC

Current Version | Previous Version | Graphics & Text | Print | Product List | Glossary Off
Versions: 1 2 3 4 5 6 7 8 9 10 11 12 13 14 15 16 17 18 19 20 21 22 23 24 25 26 27 28 29 30 31 32 33 34 35 36 37 38 39 40 41 42 43 44 45 46 47 48 49 50

000
ASUS42 KMHX 032113
RWRMHX
WEATHER ROUNDUP FOR EASTERN NORTH CAROLINA
NATIONAL WEATHER SERVICE NEWPORT/MOREHEAD CITY NC
500 PM EDT FRI JUL 03 2015

NOTE: "FAIR" INDICATES FEW OR NO CLOUDS BELOW 12,000 FEET
WITH NO SIGNIFICANT WEATHER AND/OR OBSTRUCTIONS TO VISIBILITY

NCZ015>017-031-032-045>047-102-103-032200-
NORTH COAST

CITY           SKY/WX    TMP DP  RH WIND       PRES   REMARKS
EDENTON        RAIN      78  73  84 E15G22    29.91F
ELIZABETH CITY MOSUNNY   80  70  71 E10       29.92F
KITTY HAWK     LGT RAIN  80  70  71 E8        29.94S
MANTEO         CLOUDY    76  72  85 E8        29.95S

$$

NCZ045>047-081-094-103-104-032200-
CENTRAL COAST

CITY           SKY/WX    TMP DP  RH WIND       PRES   REMARKS
FRISCO         CLOUDY    82  72  71 S6        29.95F
SWANQUARTER      N/A     81 N/A N/A SE6       29.88S

$$

NCZ095-097-098-100-101-032200-
SOUTHERN COAST

CITY           SKY/WX    TMP DP  RH WIND       PRES   REMARKS
BEAUFORT       MOSUNNY   82  74  76 SW21G26   29.93S
CEDAR ISLAND     N/A     82 N/A N/A S14       29.94F
JACKSONVILLE   NOT AVBL
PINEY ISLAND   MOCLDY   N/A N/A N/A S14       29.91F
WILMINGTON     PTSUNNY   80  74  81 S8        29.93S


$$

NCZ011>013-027>030-043-044-078>080-089-090>093-098-032200-
COASTAL PLAIN

CITY           SKY/WX    TMP DP  RH WIND       PRES   REMARKS
AHOSKIE        LGT RAIN  78  70  77 SE9G21    29.91S
CLINTON        MOSUNNY   81  74  80 SW6       29.91S
ELIZABETHTOWN  MOSUNNY   85  73  68 S8        29.91F
GOLDSBORO      PTSUNNY   81  73  78 W3        29.89S
GREENVILLE     CLOUDY    82  72  69 SW7       29.92S
HAVELOCK       CLOUDY    85  75  72 S13       29.91F
KENANSVILLE    PTSUNNY   82  71  69 S5        29.92S
KINSTON        CLOUDY    82  72  69 SW6       29.91S
NEW BERN       MOSUNNY   84  75  74 SW6       29.91F
RICHLANDS      PTSUNNY   82  70  65 SW10      29.92S
ROCKY MOUNT    CLOUDY    82  71  69 S9        29.90F
WASHINGTON     MOSUNNY   83  72  69 S3        29.90F
WHITEVILLE     MOSUNNY   83  76  80 W3        29.92R

$$

AMZ130-135-150-152-154-156-158-170-250-252-270-ANZ085-086-088-633-658-670-032200-
MARINE OBSERVATIONS

STATION/POSITION TIME  TEMP    WIND        PRES    WAVE   SWELL
                       AIR SEA DIR/SP/G            HT/PER HT/PER
                 (UTC) (F)     (DEG/KT/KT) (MB)    (FT/S) (FT/S)
CHESAPEAKE LIGHT 2100   74      90/ 14/ 15 1014.5
64 E VA BEACH    2050   76 79   90/  6/  8 1014.3    3/ 7   3/ 7
DUCK             2000   79 77   80/  8/  9 1013.4
2 E DUCK         2011      77                N/A     2/15
OREGON INLET     2000   77 72   70/  8/ 10 1014.3
13E OREGON INLT  2000      71                N/A     4/ 7
HATTERAS CG      2000   82 78  180/  5/  8 1014.3
DIAMOND BUOY     2050   80 80  210/ 14/ 17 1014.0    5/ 6   3/ 8
CAPE LOOKOUT     2100   81     210/ 12/ 17 1013.3
BEAUFORT LAB     2000   80 81  210/ 12/ 19 1013.1
30 SE NEW RVR IN 2008   80 80  240/ 16/ 21 1014.8
27 SE WRIGHTSVLE 2000      80  230/ 16/ 19   N/A
5 SE WRIGHTSVLE  2008   79 80  210/ 16/ 21 1013.6
225 S CAPE HAT   2050   82 81  230/ 12/ 14 1018.5    6/ 7   5/ 7
41 SE CHARLESTON 2050   76 82  260/ 21/ 27 1016.7    5/ 5   2/ 9

$$


USA.gov is the U.S. government's official web portal to all federal, state and local government web resources and services.